This is the latest recevied weather packets stored in our database for station/object AA8FM-13. If no packets are shown the sender has not sent any weather packets the latest 10 day(s).
| Time | Temp. | Humidity | Pressure | Rain* | Wind** | Luminosity | Snow |
|---|---|---|---|---|---|---|---|
| 1777645635 | 11.67° C | 66% | 1010.9 hPa | 0 mm | - | 301 W/m² | - |
| 1777645331 | 11.67° C | 71% | 1010.8 hPa | 0 mm | - | 459 W/m² | - |
| 1777645026 | 11.67° C | 72% | 1010.9 hPa | 0 mm | - | 382 W/m² | - |
| 1777644724 | 11.67° C | 72% | 1010.9 hPa | 0 mm | - | 379 W/m² | - |
| 1777644421 | 11.11° C | 76% | 1010.9 hPa | 0 mm | - | 437 W/m² | - |
| 1777644117 | 10.56° C | 79% | 1011 hPa | 0 mm | - | 414 W/m² | - |
| 1777643814 | 10.56° C | 81% | 1010.9 hPa | 0 mm | - | 353 W/m² | - |
| 1777643511 | 9.44° C | 82% | 1010.9 hPa | 0 mm | - | 385 W/m² | - |
| 1777643207 | 9.44° C | 84% | 1011 hPa | 0 mm | - | 235 W/m² | - |
| 1777642904 | 9.44° C | 87% | 1011 hPa | 0 mm | - | 311 W/m² | - |
| 1777642601 | 8.89° C | 86% | 1011 hPa | 0 mm | - | 327 W/m² | - |
| 1777642298 | 8.89° C | 86% | 1011 hPa | 0 mm | - | 321 W/m² | - |
| 1777641995 | 7.78° C | 91% | 1011 hPa | 0 mm | - | 256 W/m² | - |
| 1777641690 | 7.22° C | 94% | 1011.1 hPa | 0 mm | - | 210 W/m² | - |
| 1777641385 | 7.22° C | 93% | 1011.1 hPa | 0 mm | - | 235 W/m² | - |
| 1777641081 | 6.67° C | 97% | 1011.3 hPa | 0 mm | - | 181 W/m² | - |
| 1777640777 | 6.11° C | 99% | 1011.2 hPa | 0 mm | - | 185 W/m² | - |
| 1777640475 | 5.56° C | 99% | 1011.4 hPa | 0 mm | - | 151 W/m² | - |
| 1777640171 | 5.56° C | 99% | 1011.3 hPa | 0 mm | - | 72 W/m² | - |
| 1777639868 | 5.56° C | 99% | 1011.3 hPa | 0 mm | - | 71 W/m² | - |
| 1777639565 | 5.56° C | 99% | 1011.3 hPa | 0 mm | - | 77 W/m² | - |
| 1777639262 | 5° C | 99% | 1011.2 hPa | 0 mm | - | 59 W/m² | - |
| 1777638958 | 5° C | 99% | 1011.2 hPa | 0 mm | - | 62 W/m² | - |
| 1777638654 | 4.44° C | 99% | 1011.5 hPa | 0 mm | - | 56 W/m² | - |
| 1777638351 | 4.44° C | 99% | 1011.3 hPa | 0 mm | - | 48 W/m² | - |
* Rain latest hour (hover to see other rain measurements)
** Current wind speed in m/s (hover to see current wind gust speed)